1331424029527,53.6124
1331424089527,53.5605
1331424149527,53.5678
1331424209527,53.5228
1331424269527,53.5152
1331424329527,53.5291
1331424389527,53.6297
1331424449527,53.5035
1331424509527,53.6563
1331424569527,53.4295
1331424629527,53.6805
1331424689527,53.6289
1331424749527,53.5482
1331424809527,53.5609
1331424869527,53.5840
1331424929527,53.7366
1331424989527,53.6057
1331425049527,53.6933
1331425109527,53.5425
1331425169527,53.5977
1331425229527,53.4707
1331425289527,53.6532
1331425349527,53.4106
1331425409527,53.4732
1331425469527,53.6247
1331425529527,53.5737
1331425589527,53.7141
1331425649527,53.7509
1331425709527,53.6194
1331425769527,53.6282
1331425829527,53.6925
1331425889527,53.5772
1331425949527,53.6480
1331426009527,53.4500
1331426069527,53.6378
1331426129527,53.6514
1331426189527,53.7071
1331426249527,53.7027
1331426309527,53.5223
1331426369527,53.4963
1331426429527,53.4769
1331426489527,53.5632
1331426549527,53.5665
1331426609527,53.5174
1331426669527,53.5615
1331426729527,53.6997
1331426789527,53.6240
1331426849527,53.5168
1331426909527,53.4947
1331426969527,53.5526
1331427029527,53.3984
1331427089527,53.5243
1331427149527,53.4802
1331427209527,53.7699
1331427269527,53.5197
1331427329527,53.4828
1331427389527,53.5525
1331427449527,53.4066
1331427509527,53.5572
1331427569527,53.5469
1331427629541,53.4586
1331427689541,53.2522
1331427749541,53.5531
1331427809541,53.2547
1331427869541,53.5978
1331427929541,53.4307
1331427989541,53.4958
1331428049541,53.4975
1331428109541,53.4594
1331428169541,53.3631
1331428229541,53.5813
1331428289541,53.4762
1331428349541,53.7524
1331428409541,53.5913
1331428469541,53.5566
1331428529541,53.4817
1331428589541,53.5187
1331428649541,53.4897
1331428709541,53.5117
1331428769541,53.6354
1331428829541,53.6252
1331428889541,53.3941
1331428949541,53.4117
1331429009541,53.4614
1331429069541,53.5920
1331429129541,53.6380
1331429189541,53.4896
1331429249541,53.4530
1331429309541,53.4007
1331429369541,53.5187
1331429429541,53.5622
1331429489541,53.6181
1331429549541,53.6404
1331429609541,53.3657
1331429669541,53.5280
1331429729541,53.3656
1331429789541,53.3211
1331429849541,53.4452
1331429909541,53.2834
1331429969541,53.2943
1331430029541,53.5242
1331430089541,53.4547
1331430149541,53.4843
1331430209541,53.4129
1331430269541,53.4738
1331430329541,53.4482
1331430389541,53.3295
1331430449541,53.5328
1331430509541,53.5948
1331430569541,53.5593
1331430629541,53.4379
1331430689541,53.4127
1331430749541,53.4062
1331430809541,53.5212
1331430869541,53.3136
1331430929541,53.3802
1331430989541,53.3772
1331431049541,53.4227
1331431109541,53.4457
1331431169541,53.3486
1331431229554,53.5267
1331431289554,53.5894
1331431349554,53.2913
1331431409554,53.4230
1331431469554,53.3962
1331431529554,53.3984
1331431589554,53.3968
1331431649554,53.3924
1331431709554,53.4733
1331431769554,53.4700
1331431829554,53.3790
1331431889554,53.4514
1331431949554,53.4787
1331432009554,53.4858
1331432069554,53.5000
1331432129554,53.4838
1331432189554,53.4106
1331432249554,53.4467
1331432309554,53.3293
1331432369554,53.4026
1331432429554,53.3658
1331432489554,53.3013
1331432549554,53.3518
1331432609554,53.3930
1331432669554,53.4023
1331432729554,53.4969
1331432789554,53.5302
1331432849554,53.3997
1331432909554,53.4242
1331432969554,53.5186
1331433029554,53.3831
1331433089554,53.3740
1331433149554,53.3594
1331433209554,53.4725
1331433269554,53.4872
1331433329554,53.3659
1331433389554,53.4374
1331433449554,53.2849
1331433509554,53.3111
1331433569554,53.4485
1331433629554,53.4187
1331433689554,53.4039
1331433749554,53.3956
1331433809554,53.2166
1331433869554,53.3278
1331433929554,53.3101
1331433989554,53.3730
1331434049554,53.3842
1331434109554,53.2328
1331434169554,53.3503
1331434229554,53.3994
1331434289554,53.2754
1331434349554,53.4313
1331434409554,53.1871
1331434469554,53.3831
1331434529554,53.3490
1331434589554,53.3468
1331434649554,53.3204
1331434709554,53.3888
1331434769554,53.3072
1331434829567,53.3714
1331434889567,53.3351
1331434949567,53.4154
1331435009567,53.3801
1331435069567,53.4577
1331435129567,53.1003
1331435189567,53.3802
1331435249567,53.3258
1331435309567,53.2629
1331435369567,53.2540
1331435429567,53.3041
1331435489567,53.2253
1331435549567,53.2117
1331435609567,53.0795
1331435669567,53.1631
1331435729567,53.2360
1331435789567,53.1758
1331435849567,53.1868
1331435909567,53.0989
1331435969567,53.3288
1331436029567,53.2936
1331436089567,53.1207
1331436149567,53.2078
1331436209567,53.2526
1331436269567,53.1271
1331436329567,53.2819
1331436389567,53.2910
1331436449567,53.3175
1331436509567,53.2728
1331436569567,53.1886
1331436629567,53.2687
1331436689567,53.3192
1331436749567,53.3005
1331436809567,53.3762
1331436869567,53.4025
1331436929567,53.4082
1331436989567,53.3456
1331437049567,53.3135
1331437109567,53.3503
1331437169567,53.3364
1331437229567,53.3354
1331437289567,53.3462
1331437349567,53.2588
1331437409567,53.4903
1331437469567,53.5308
1331437529567,53.3477
1331437589567,53.3650
1331437649567,53.5336
1331437709567,53.5258
1331437769567,53.4543
1331437829567,53.6174
1331437889567,53.3347
1331437949567,53.5053
1331438009567,53.4595
1331438069567,53.4063
1331438129567,53.5353
1331438189567,53.4065
1331438249567,53.5738
1331438309567,53.5634
1331438369567,53.4658
1331438429581,53.5099
1331438489581,53.4815
1331438549581,53.3519
1331438609581,53.3306
1331438669581,53.5095
1331438729581,53.4019
1331438789581,53.5274
1331438849581,53.5330
1331438909581,53.4689
1331438969581,53.4442
1331439029581,53.4417
1331439089581,53.5158
1331439149581,53.5363
1331439209581,54.0373
1331439269581,53.4288
1331439329581,53.5990
1331439389581,53.5248
1331439449581,53.4808
1331439509581,53.5523
1331439569581,53.7531
1331439629581,53.6174
1331439689581,53.5724
1331439749581,53.5568
1331439809581,53.5641
1331439869581,53.8145
1331439929581,53.7109
1331439989581,53.7985
1331440049581,53.6263
1331440109581,53.7444
1331440169581,53.7324
1331440229581,53.6609
1331440289581,53.8698
1331440349581,53.8445
1331440409581,53.8184
1331440469581,53.8748
1331440529581,53.7906
1331440589581,54.0701
1331440649581,54.0286
1331440709581,54.0043
1331440769581,53.9501
1331440829581,54.0531
1331440889581,54.0791
1331440949581,54.2006
1331441009581,54.1546
1331441069581,54.1006
1331441129581,54.1505
1331441189581,54.2574
1331441249581,54.0084
1331441309581,54.0802
1331441369581,54.0924
1331441429581,54.2870
1331441489581,54.1798
1331441549581,54.1099
1331441609581,54.2590
1331441669581,54.1570
1331441729581,54.3686
1331441789581,54.1621
1331441849581,54.2980
1331441909581,54.4708
1331441969581,54.2666
1331442029594,54.3111
1331442089594,54.3026
1331442149594,54.3223
1331442209594,54.2977
1331442269594,54.2820
1331442329594,54.3686
1331442389594,54.2131
1331442449594,54.2366
1331442509594,54.3335
1331442569594,54.2292
1331442629594,54.3378
1331442689594,54.3735
1331442749594,54.2502
1331442809594,54.3369
1331442869594,54.1598
1331442929594,54.4271
1331442989594,54.3185
1331443049594,54.2141
1331443109594,54.3202
1331443169594,54.2137
1331443229594,54.4192
1331443289594,54.6027
1331443349594,54.3906
1331443409594,54.3546
1331443469594,54.3298
1331443529594,54.4139
1331443589594,54.3326
1331443649594,54.2344
1331443709594,54.3515
1331443769594,54.4035
1331443829594,54.3759
1331443889594,54.2134
1331443949594,54.3023
1331444009594,54.4244
1331444069594,54.3185
1331444129594,54.3886
1331444189594,54.2768
1331444249594,54.4751
1331444309594,54.4156
1331444369594,54.2922
1331444429594,54.3513
1331444489594,54.5052
1331444549594,54.3698
1331444609594,54.4008
1331444669594,54.4033
1331444729594,54.3973
1331444789594,54.4340
1331444849594,54.4097
1331444909594,54.5464
1331444969594,54.3758
1331445029594,54.4512
1331445089594,54.5040
1331445149594,54.3307
1331445209594,54.4311
1331445269594,54.4665
1331445329594,54.2031
1331445389594,54.3229
1331445449594,54.2887
1331445509594,54.3681
1331445569594,54.5091
1331445629607,54.4948
1331445689607,54.4794
1331445749607,54.4416
1331445809607,54.6004
1331445869607,54.3507
1331445929607,54.3864
1331445989607,54.5058
1331446049607,54.4419
1331446109607,54.4102
1331446169607,54.4529
1331446229607,54.5464
1331446289607,54.2512
1331446349607,54.3251
1331446409607,54.4473
1331446469607,54.2114
1331446529607,54.3221
1331446589607,54.2415
1331446649607,54.2253
1331446709607,54.2236
1331446769607,54.3140
1331446829607,54.1782
1331446889607,54.1960
1331446949607,54.3094
1331447009607,54.2442
1331447069607,54.2426
1331447129607,54.3402
1331447189607,54.4611
1331447249607,54.2721
1331447309607,54.3173
1331447369607,54.3329
1331447429607,54.2982
1331447489607,54.3635
1331447549607,54.2774
1331447609607,54.1462
1331447669607,53.7629
1331460269658,53.8087
1331460329658,53.7359
1331460389658,53.5557
1331460449658,53.7888
1331460509658,53.8193
1331460569658,53.7150
1331460629658,53.8919
1331460689658,53.8046
1331460749658,53.7074
1331460809658,53.7007
1331460869658,53.8593
1331460929658,53.9043
1331460989658,53.7812
1331461049658,53.8618
1331461109658,53.7688
1331461169658,53.8767
1331461229658,53.8876
1331461289658,54.0108
1331461349658,53.9019
1331461409658,53.8611
1331461469658,53.7330
1331461529658,53.7374
1331461589658,53.9734
1331461649658,53.9750
1331461709658,53.7696
1331461769658,53.6628
1331461829658,53.8260
1331461889658,53.6811
1331461949658,53.9692
1331462009658,53.8227
1331462069658,53.8989
1331462129658,53.8815
1331462189658,53.9055
1331462249658,53.8573
1331462309658,53.6964
1331462369658,53.8754
1331462429658,53.8102
1331462489658,53.9539
1331462549658,53.7995
1331462609658,53.8001
1331462669658,53.8564
1331462729658,53.8595
1331462789658,53.7563
1331462849658,53.6914
1331462909658,53.6415
1331462969658,53.9413
1331463029658,53.7075
1331463089658,53.6662
1331463149658,53.6916
1331463209658,53.7269
1331463269658,53.9146
1331463329658,53.7159
1331463389658,53.7538
1331463449658,53.8786
1331463509658,53.6755
1331463569658,53.9341
1331463629672,53.8381
1331463689672,53.9827
1331463749672,53.7129
1331463809672,53.9372
1331463869672,53.7014
1331463929672,53.7675
1331463989672,53.7100
1331464049672,53.7460
1331464109672,53.6880
1331464169672,53.6690
1331464229672,53.7201
1331464289672,53.8396
1331464349672,53.8891
1331464409672,53.7896
1331464469672,53.6471
1331464529672,53.5999
1331464589672,53.8647
1331464649672,53.6648
1331464709672,53.7151
1331464769672,53.5903
1331464829672,53.7323
1331464889672,53.6071
1331464949672,53.6276
1331465009672,53.6097
1331465069672,53.6422
1331465129672,53.7566
1331465189672,53.7537
1331465249672,53.7981
1331465309672,53.7353
1331465369672,53.7720
1331465429672,53.7629
1331465489672,53.7964
1331465549672,53.7954
1331465609672,53.8476
1331465669672,53.8013
1331465729672,53.9399
1331465789672,53.6579
1331465849672,53.7563
1331465909672,53.7568
1331465969672,53.6876
1331466029672,53.8026
1331466089672,53.6920
1331466149672,53.8822
1331466209672,53.7708
1331466269672,53.5438
1331466329672,53.6375
1331466389672,53.6827
1331466449672,53.7830
1331466509672,53.5947
1331466569672,53.7683
1331466629672,53.6432
1331466689672,53.7765
1331466749672,53.6752
1331466809672,53.6916
1331466869672,53.6146
1331466929672,53.5935
1331466989672,53.7015
1331467049672,53.6420
1331467109672,53.7836
1331467169672,53.7679
1331467229685,53.6927
1331467289685,53.6526
1331467349685,53.5548
1331467409685,53.7489
1331467469685,53.7868
1331467529685,53.7733
1331467589685,53.7215
1331467649685,53.6327
1331467709685,53.6804
1331467769685,53.7169
1331467829685,53.7235
1331467889685,53.6859
1331467949685,53.7517
1331468009685,53.6506
1331468069685,53.7761
1331468129685,53.7166
1331468189685,53.7616
1331468249685,53.6762
1331468309685,53.8398
1331468369685,53.7340
1331468429685,53.8288
1331468489685,53.7043
1331468549685,53.7205
1331468609685,53.8747
1331468669685,53.8132
1331468729685,53.6790
1331468789685,53.6792
1331468849685,53.6918
1331468909685,53.7030
1331468969685,53.6654
1331469029685,53.5947
1331469089685,53.7997
1331469149685,53.8365
1331469209685,53.7308
1331469269685,53.5518
1331469329685,53.6184
1331469389685,53.7389
1331469449685,53.8481
1331469509685,53.8865
1331469569685,53.6862
1331469629685,53.7176
1331469689685,53.7066
1331469749685,53.6759
1331469809685,53.7834
1331469869685,53.6417
1331469929685,53.5471
1331469989685,53.7075
1331470049685,53.6754
1331470109685,53.5219
1331470169685,53.6980
1331470229685,53.7317
1331470289685,53.6439
1331470349685,53.6517
1331470409685,53.7069
1331470469685,53.7668
1331470529685,53.5561
1331470589685,53.6168
1331470649685,53.5777
1331470709685,53.6381
1331470769685,53.6806
1331470829699,53.5984
1331470889699,53.7155
1331470949699,53.6928
1331471009699,53.6629
1331471069699,53.7359
1331471129699,53.6304
1331471189699,53.6853
1331471249699,53.6026
1331471309699,53.5717
1331471369699,53.7326
1331471429699,53.5517
1331471489699,53.5706
1331471549699,53.7748
1331471609699,53.5890
1331471669699,53.5574
1331471729699,53.6687
1331471789699,53.4682
1331471849699,53.7858
1331471909699,53.6050
1331471969699,53.5955
1331472029699,53.5462
1331472089699,53.5789
1331472149699,53.5872
1331472209699,53.5889
1331473349699,53.9315
1331473409699,53.5310
1331473469699,53.7624
1331473529699,53.7778
1331473589699,53.6051
1331473649699,53.7296
1331473709699,53.8052
1331473769699,53.6008
1331473829699,53.6763
1331473889699,53.5676
1331473949699,53.6750
1331474009699,53.6838
1331474069699,53.5925
1331474129699,53.6432
1331474189699,53.7152
1331474249699,53.7764
1331474309699,53.6536
1331474369699,53.6770
1331474429712,53.4172
1331474489712,53.6677
1331474549712,53.5861
1331474609712,53.5354
1331474669712,53.6203
1331474729712,53.7490
1331474789712,53.6187
1331474849712,53.4735
1331474909712,53.3578
1331474969712,53.4336
1331475029712,53.5960
1331475089712,53.4074
1331475149712,53.4910
1331475209712,53.3767
1331475269712,53.4470
1331475329712,53.5450
1331475389712,53.6632
1331475449712,53.5233
1331475509712,53.4308
1331475569712,53.5280
1331475629712,53.4883
1331475689712,53.5272
1331475749712,53.5100
1331475809712,53.5157
1331475869712,53.6253
1331475929712,53.3908
1331475989712,53.3772
1331476049712,53.2790
1331476109712,53.3403
1331476169712,53.5490
1331476229712,53.5391
1331476289712,53.3697
1331476349712,53.4554
1331476409712,53.5895
1331476469712,53.5245
1331476529712,53.5878
1331476589712,53.5485
1331476649712,53.3833
1331476709712,53.4416
1331476769712,53.6158
1331476829712,53.5314
1331476889712,53.6089
1331476949712,53.6198
1331477009712,53.6629
1331477069712,53.6282
1331477129712,53.5272
1331477189712,53.6795
1331477249712,53.7008
1331477309712,53.7040
1331477369712,53.7742
1331477429712,53.6708
1331477489712,53.7317
1331477549712,53.7176
1331477609712,53.5691
1331477669712,53.5873
1331477729712,53.8231
1331477789712,53.5699
1331477849712,53.6489
1331477909712,53.6502
1331477969712,53.6724
1331478029726,53.6777
1331478089726,53.7662
1331478149726,53.6796
1331478209726,53.7347
1331478269726,53.8209
1331478329726,53.7433
1331478389726,53.8504
1331478449726,53.8593
1331478509726,53.7416
1331478569726,53.6071
1331478629726,53.7083
1331478689726,53.7017
1331478749726,53.7505
1331478809726,53.7058
1331478869726,53.9014
1331478929726,53.7731
1331478989726,53.6916
1331479049726,53.6369
1331479109726,53.7547
1331479169726,53.8114
1331479229726,53.8273
1331479289726,53.6287
1331479349726,53.6748
1331479409726,53.8392
1331479469726,53.7137
1331479529726,53.7446
1331479589726,53.8647
1331479649726,53.6574
1331479709726,53.6938
1331479769726,53.6762
1331479829726,53.8732
1331479889726,53.6501
1331479949726,53.8121
1331480009726,53.7811
1331480069726,53.8564
1331480129726,53.6112
1331480189726,53.8491
1331480249726,53.6479
1331480309726,53.9406
1331480369726,53.7378
1331480429726,53.6197
1331480489726,53.5209
1331480549726,53.8036
1331480609726,53.7031
1331480669726,53.8619
1331480729726,53.7682
1331480789726,53.7300
1331480849726,53.9993
1331480909726,53.7973
1331480969726,53.6274
1331481029726,53.7125
1331481089726,53.6722
1331481149726,53.8335
1331481209726,53.7732
1331481269726,53.7086
1331481329726,53.7464
1331481389726,53.7207
1331481449726,53.6817
1331481509726,53.7275
1331481569726,53.5742
1331481629739,53.8178
1331481689739,53.7482
1331481749739,53.7375
1331481809739,53.7709
1331481869739,53.8103
1331481929739,53.6582
1331481989739,53.7767
1331482049739,53.7873
1331482109739,53.7776
1331482169739,53.6162
1331482229739,53.7829
1331482289739,53.6844
1331482349739,53.6873
1331482409739,53.5538
1331482469739,53.7958
1331482529739,53.6950
1331482589739,53.8360
1331482649739,53.6932
1331482709739,53.7115
1331482769739,53.8183
1331482829739,53.7161
1331482889739,53.6694
1331482949739,53.6561
1331483009739,53.7504
1331483069739,53.8098
1331483129739,53.7313
1331483189739,53.8304
1331483249739,54.0111
1331483309739,53.7784
1331483369739,53.8488
1331483429739,53.8741
1331483489739,53.8417
1331483549739,53.8043
1331483609739,53.8368
1331483669739,53.6673
1331483729739,53.6151
1331483789739,53.8209
1331483849739,53.6529
1331483909739,53.7658
1331483969739,53.6263
1331484029739,53.6965
1331484089739,53.6616
1331484149739,53.5343
1331484209739,53.5764
1331484269739,53.6414
1331484329739,53.6576
1331484389739,53.7801
1331484449739,53.6828
1331484509739,53.7198
1331484569739,53.6602
1331484629739,53.7677
1331484689739,53.7504
1331484749739,53.6878
1331484809739,53.6772
1331484869739,53.7174
1331484929739,53.5112
1331484989739,53.7290
1331485049739,53.4966
1331485109739,53.6692
1331485169739,53.6213
1331485229752,53.7307
1331485289752,53.6340
1331485349752,53.7430
1331485409752,53.7632
1331485469752,53.8391
1331485529752,53.7856
1331485589752,53.8220
1331485649752,53.7451
1331485709752,53.7219
1331485769752,53.7953
1331485829752,53.7515
1331485889752,53.8249
1331485949752,53.8177
1331486009752,53.6925
1331486069752,53.6318
1331486129752,53.6781
1331486189752,53.7948
1331486249752,53.6694
1331486309752,53.7497
1331486369752,53.7390
1331486429752,53.8120
1331486489752,53.9802
1331486549752,53.7072
1331486609752,53.6974
1331486669752,53.8393
1331486729752,53.7353
1331486789752,53.8455
1331486849752,53.9850
1331486909752,53.9872
1331486969752,53.8374
1331487029752,53.8686
1331487089752,54.0230
1331487149752,53.9184
1331487209752,54.1440
1331487269752,53.9327
1331487329752,53.9159
1331487389752,54.0440
1331487449752,53.8492
1331487509752,53.7556
1331487569752,54.0626
1331487629752,53.9605
1331487689752,53.9687
1331487749752,53.8972
1331487809752,53.7994
1331487869752,54.1079
1331487929752,53.8499
1331487989752,53.9887
1331488049752,53.8611
1331488109752,53.8368
1331488169752,54.1313
1331488229752,53.9276
1331488289752,54.0309
1331488349752,54.1378
1331488409752,54.0817
1331488469752,54.0404
1331488529752,53.9038
1331488589752,54.0460
1331488649752,54.1102
1331488709752,54.0478
1331488769752,54.3271
1331488829766,53.9173
1331488889766,54.0744
1331488949766,54.1038
1331489009766,54.1342
1331489069766,54.1943
1331489129766,54.0759
1331489189766,54.1371
1331489249766,54.0860
1331489309766,54.3442
1331489369766,54.1946
1331489429766,54.2174
1331489489766,54.3637
1331489549766,54.0729
1331489609766,54.3068
1331489669766,54.2144
1331489729766,54.1172
1331489789766,54.1708
1331489849766,54.1695
1331489909766,54.3179
1331489969766,54.2538
1331490029766,54.2844
1331490089766,54.2427
1331490149766,54.2079
1331490209766,54.2096
1331490269766,54.2468
1331490329766,54.3411
1331490389766,54.2293
1331490449766,54.2486
1331490509766,54.2858
1331490569766,54.0599
1331490629766,54.2959
1331490689766,54.1751
1331490749766,54.1984
1331490809766,54.1613
1331490869766,54.1991
1331490929766,54.1109
1331490989766,54.2695
1331491049766,54.1587
1331491109766,54.2677
1331491169766,54.4572
1331491229766,53.9988
1331491289766,54.2688
1331491349766,54.1462
1331491409766,54.1068
1331491469766,54.0589
1331491529766,54.1278
1331491589766,54.1380
1331491649766,54.0780
1331491709766,54.0862
1331491769766,54.0740
1331491829766,54.0798
1331491889766,54.2508
1331491949766,54.2320
1331492009766,54.2790
1331492069766,54.1123
1331492129766,54.0762
1331492189766,54.2697
1331492249766,53.9718
1331492309766,54.0505
1331492369766,54.2249
1331492429779,54.2453
1331492489779,54.1971
1331492549779,54.2513
1331492609779,54.1104
1331492669779,54.0598
1331492729779,54.1803
1331492789779,54.1384
1331492849779,54.1964
1331492909779,54.1452
1331492969779,54.1228
1331493029779,54.1989
1331493089779,54.1312
1331493149779,54.0468
1331493209779,53.9817
1331493269779,53.9396
1331493329779,54.1323
1331493389779,54.0778
1331493449779,54.0485
1331493509779,54.1365
1331493569779,54.0013
1331493629779,54.1982
1331493689779,53.9905
1331493749779,54.2039
1331493809779,54.3226
1331493869779,54.1876
1331493929779,54.0305
1331493989779,54.2912
1331494049779,54.1130
1331494109779,54.2207
1331494169779,54.1851
1331494229779,53.9769
1331494289779,54.0475
1331494349779,53.9749
1331494409779,54.1602
1331494469779,53.8893
1331494529779,54.0626
1331494589779,54.0407
1331494649779,53.9384
1331494709779,53.9147
1331494769779,53.9625
1331494829779,53.9319
1331494889779,54.0950
1331494949779,53.9384
1331495009779,54.0508
1331495069779,54.0976
1331495129779,54.1086
1331495189779,54.1239
1331495249779,54.2618
1331495309779,54.0283
1331495369779,54.1160
1331495429779,54.2534
1331495489779,54.1478
1331495549779,54.1385
1331495609779,54.2407
1331495669779,54.0835
1331495729779,54.1707
1331495789779,54.1071
1331495849779,54.1170
1331495909779,54.1515
1331495969779,53.9883
1331496029765,54.3587
1331496089765,54.2384
1331496149765,54.1502
1331496209765,54.0228
1331496269765,54.1695
1331496329765,54.0176
1331496389765,54.1726
1331496449765,54.1500
1331496509765,54.1484
1331496569765,54.0816
1331496629765,54.1583
1331496689765,54.1509
1331496749765,53.9763
1331496809765,54.0858
1331496869765,54.1749
1331496929765,53.9637
1331496989765,54.0353
1331497049765,53.9536
1331497109765,53.9202
1331497169765,53.8729
1331497229765,54.0809
1331497289765,53.9641
1331497349765,53.8985
1331497409765,54.1408
1331497469765,54.3382
1331497529765,54.0569
1331497589765,54.2558
1331497649765,53.9156
1331497709765,54.0408
1331497769765,53.9516
1331497829765,54.0051
1331497889765,54.0367
1331497949765,53.9640
1331498009765,54.0225
1331498069765,53.8128
1331498129765,54.1440
1331498189765,54.1867
1331498249765,54.0607
1331498309765,54.0091
1331498369765,53.9472
1331498429765,54.1489
1331498489765,54.0906
1331498549765,54.0378
1331498609765,53.9861
1331498669765,54.0176
1331498729765,54.1978
1331498789765,54.0676
1331498849765,54.0495
1331498909765,54.0793
1331498969765,54.0410
1331499029765,54.0189
1331499089765,54.1422
1331499149765,54.1597
1331499209765,54.0283
1331499269765,54.0460
1331499329765,53.9578
1331499389765,53.8457
1331499449765,54.0966
1331499509765,54.0408
1331499569765,54.0068
1331499629777,53.9786
1331499689777,53.9440
1331499749777,53.8700
1331499809777,54.0454
1331499869777,54.1224
1331499929777,54.0326
1331499989777,53.9048
1331500049777,53.9625
1331500109777,54.0134
1331500169777,53.9645
1331500229777,53.9924
1331500289777,54.0418
1331500349777,53.9088
1331500409777,54.0957
1331500469777,53.9903
1331500529777,53.9624
1331500589777,54.0513
1331500649777,53.8771
1331500709777,53.9501
1331500769777,53.8721
1331500829777,54.0413
1331500889777,53.8770
1331500949777,54.0290
1331501009777,53.8989
1331501069777,54.0238
1331501129777,54.1097
1331501189777,54.0083
1331501249777,53.9623
1331501309777,53.9256
1331501369777,53.9310
1331501429777,53.8608
1331501489777,54.0229
1331501549777,53.9642
1331501609777,53.9104
1331501669777,53.8395
1331501729777,54.1566
1331501789777,53.9588
1331501849777,54.0005
1331501909777,54.0010
1331501969777,54.0963
1331502029777,53.9860
1331502089777,53.9421
1331502149777,54.0515
1331502209777,54.2204
1331502269777,54.0533
1331502329777,53.9682
1331502389777,54.1703
1331502449777,54.0668
1331502509777,54.0111
1331502569777,54.1237
1331502629777,54.0533
1331502689777,54.0854
1331502749777,53.9641
1331502809777,54.1351
1331502869777,54.1273
1331502929777,54.0888
1331502989777,54.0270